START_TIME,STEP,MOV.,H8,t_acc.,H43,t_acc.,M25,t_acc.,H9,t_acc.
1979-08-02 09:00:28.330 ,0,0,0.,12.0,0.,12.0,0.,12.0,0.,12.0
1979-08-02 09:00:40.330 ,0,0,,0,,0,,0,,0
1979-08-02 09:00:52.330 ,0,0,0.,12.0,0.,12.0,0.,12.0,0.,12.0
1979-08-02 09:01:04.330 ,0,0,0.,12.0,0.,12.0,0.,12.0,0.,12.0
1979-08-02 09:01:16.320 ,0,0,0.,12.0,0.,12.0,0.,12.0,0.,12.0
1979-08-02 09:01:28.330 ,0,0,0.,12.0,0.,12.0,0.,12.0,0.,12.0
1979-08-02 09:01:40.330 ,1,0,0.,12.0,0.,12.0,0.,12.0,0.,12.0
1979-08-02 09:01:52.330 ,1,0,0.,12.0,0.,12.0,0.,12.0,0.,12.0
1979-08-02 09:02:04.320 ,1,0,0.,12.0,0.,12.0,0.,12.0,0.,12.0
1979-08-02 09:02:16.330 ,1,0,0.,12.0,0.,12.0,0.,12.0,0.,12.0
1979-08-02 09:02:28.320 ,2,0,0.,12.0,0.,12.0,0.,12.0,0.,12.0
1979-08-02 09:02:40.330 ,2,0,0.,12.0,0.,12.0,0.,12.0,0.,12.0
1979-08-02 09:02:52.320 ,2,0,0.,12.0,0.,12.0,0.,12.0,0.,12.0
1979-08-02 09:03:04.330 ,2,0,0.,12.0,0.,12.0,0.,12.0,0.,12.0
1979-08-02 09:03:16.320 ,3,0,0.,12.0,0.,12.0,0.,12.0,0.,12.0
1979-08-02 09:03:28.330 ,3,0,0.,12.0,0.,12.0,0.,12.0,0.,12.0
1979-08-02 09:03:40.320 ,3,0,0.,12.0,0.,12.0,0.,12.0,0.,12.0
1979-08-02 09:03:52.330 ,3,0,0.,12.0,0.,12.0,0.,12.0,0.,12.0
1979-08-02 09:04:04.320 ,4,0,0.,12.0,0.,12.0,0.,12.0,0.,12.0
1979-08-02 09:04:16.330 ,4,0,1.,12.0,0.,12.0,0.,12.0,0.,12.0
1979-08-02 09:04:28.330 ,0,0,0.,12.0,0.,12.0,0.,12.0,0.,12.0
1979-08-02 09:04:40.330 ,0,0,0.,12.0,0.,12.0,0.,12.0,0.,12.0
1979-08-02 09:04:52.330 ,5,0,0.,12.0,0.,12.0,0.,12.0,0.,12.0
1979-08-02 09:05:04.330 ,5,0,0.,12.0,0.,12.0,0.,12.0,0.,12.0
1979-08-02 09:05:16.330 ,5,0,0.,12.0,0.,12.0,0.,12.0,0.,12.0
1979-08-02 09:05:28.330 ,5,0,0.,12.0,0.,12.0,0.,12.0,0.,12.0
1979-08-02 09:05:40.330 ,6,0,0.,12.0,0.,12.0,0.,12.0,0.,12.0
1979-08-02 09:05:52.330 ,6,0,0.,12.0,0.,12.0,0.,12.0,0.,12.0
1979-08-02 09:06:04.330 ,6,0,0.,12.0,0.,12.0,0.,12.0,0.,12.0
1979-08-02 09:06:16.330 ,6,0,0.,12.0,0.,12.0,0.,12.0,0.,12.0
1979-08-02 09:06:28.330 ,7,0,0.,12.0,0.,12.0,0.,12.0,0.,12.0
1979-08-02 09:06:40.330 ,7,0,0.,12.0,0.,12.0,0.,12.0,0.,12.0
1979-08-02 09:06:52.330 ,7,0,0.,12.0,0.,12.0,0.,12.0,0.,12.0
1979-08-02 09:07:04.330 ,7,0,0.,12.0,0.,12.0,0.,12.0,0.,12.0
1979-08-02 09:07:16.330 ,3,1,0.,12.0,0.,12.0,0.,12.0,0.,12.0
1979-08-02 09:07:28.330 ,3,1,0.,12.0,0.,12.0,0.,12.0,0.,12.0
1979-08-02 09:07:40.330 ,0,1,0.,12.0,0.,12.0,0.,12.0,0.,12.0
1979-08-02 09:07:52.330 ,0,1,0.,12.0,0.,12.0,0.,12.0,0.,12.0
1979-08-02 09:08:04.330 ,4,1,0.,12.0,0.,12.0,0.,12.0,0.,12.0
1979-08-02 09:08:16.330 ,4,1,0.,12.0,0.,12.0,0.,12.0,0.,12.0
1979-08-02 09:08:28.330 ,7,1,0.,12.0,0.,12.0,0.,12.0,0.,12.0
1979-08-02 09:08:40.330 ,7,1,0.,12.0,0.,12.0,0.,12.0,0.,12.0
1979-08-02 09:08:52.330 ,3,1,0.,12.0,0.,12.0,0.,12.0,0.,12.0
1979-08-02 09:09:04.330 ,3,1,0.,12.0,0.,12.0,0.,12.0,0.,12.0
1979-08-02 09:09:16.330 ,0,1,0.,12.0,0.,12.0,0.,12.0,0.,12.0
1979-08-02 09:09:28.330 ,0,1,0.,12.0,0.,12.0,0.,12.0,0.,12.0
1979-08-02 09:09:40.330 ,4,1,0.,12.0,0.,12.0,0.,12.0,0.,12.0
1979-08-02 09:09:52.330 ,4,1,0.,12.0,0.,12.0,0.,12.0,0.,12.0
1979-08-02 09:10:04.330 ,7,1,0.,12.0,0.,12.0,0.,12.0,0.,12.0
1979-08-02 09:10:16.330 ,7,1,0.,12.0,0.,12.0,0.,12.0,0.,12.0
1979-08-02 09:10:28.330 ,3,1,0.,12.0,0.,12.0,0.,12.0,0.,12.0
1979-08-02 09:10:40.330 ,3,1,0.,12.0,0.,12.0,0.,12.0,0.,12.0
1979-08-02 09:10:52.330 ,0,1,0.,12.0,0.,12.0,0.,12.0,0.,12.0
1979-08-02 09:11:04.330 ,0,1,0.,12.0,0.,12.0,0.,12.0,0.,12.0
1979-08-02 09:11:16.330 ,4,1,0.,12.0,0.,12.0,0.,12.0,0.,12.0
1979-08-02 09:11:28.330 ,4,1,0.,12.0,0.,12.0,0.,12.0,0.,12.0
1979-08-02 09:11:40.330 ,7,1,0.,12.0,0.,12.0,0.,12.0,0.,12.0
1979-08-02 09:11:52.330 ,7,1,0.,12.0,0.,12.0,0.,12.0,0.,12.0
1979-08-02 09:12:04.330 ,3,1,0.,12.0,0.,12.0,0.,12.0,0.,12.0
1979-08-02 09:12:16.330 ,3,1,0.,12.0,0.,12.0,0.,12.0,0.,12.0
1979-08-02 09:12:28.330 ,0,1,0.,12.0,0.,12.0,0.,12.0,0.,12.0
1979-08-02 09:12:40.330 ,0,1,0.,12.0,0.,12.0,0.,12.0,0.,12.0
1979-08-02 09:12:52.330 ,4,1,0.,12.0,0.,12.0,0.,12.0,0.,12.0
1979-08-02 09:13:04.330 ,4,1,0.,12.0,0.,12.0,0.,12.0,0.,12.0
1979-08-02 09:13:16.330 ,7,1,0.,12.0,0.,12.0,0.,12.0,0.,12.0
1979-08-02 09:13:28.330 ,7,1,0.,12.0,0.,12.0,0.,12.0,0.,12.0
1979-08-02 09:13:40.330 ,3,1,0.,12.0,0.,12.0,0.,12.0,0.,12.0
1979-08-02 09:13:52.330 ,3,1,0.,12.0,0.,12.0,0.,12.0,0.,12.0
1979-08-02 09:14:04.330 ,0,1,0.,12.0,0.,12.0,0.,12.0,0.,12.0
1979-08-02 09:14:16.330 ,0,1,0.,12.0,0.,12.0,0.,12.0,0.,12.0
1979-08-02 09:14:28.330 ,4,1,0.,12.0,0.,12.0,0.,12.0,0.,12.0
1979-08-02 09:14:40.330 ,4,1,0.,12.0,0.,12.0,0.,12.0,0.,12.0
1979-08-02 09:14:52.330 ,7,1,0.,12.0,0.,12.0,0.,12.0,0.,12.0
1979-08-02 09:15:04.330 ,7,1,0.,12.0,0.,12.0,0.,12.0,0.,12.0
1979-08-02 09:15:16.330 ,3,1,0.,12.0,0.,12.0,0.,12.0,0.,12.0
1979-08-02 09:15:28.330 ,3,1,0.,12.0,0.,12.0,0.,12.0,0.,12.0
1979-08-02 09:15:40.330 ,0,1,0.,12.0,0.,12.0,0.,12.0,0.,12.0
1979-08-02 09:15:52.330 ,0,1,0.,12.0,0.,12.0,0.,12.0,0.,12.0
1979-08-02 09:16:04.330 ,4,1,0.,12.0,0.,12.0,0.,12.0,0.,12.0
1979-08-02 09:16:16.330 ,4,1,0.,12.0,0.,12.0,0.,12.0,0.,12.0
1979-08-02 09:16:28.330 ,7,1,0.,12.0,0.,12.0,0.,12.0,0.,12.0
1979-08-02 09:16:40.330 ,7,1,0.,12.0,0.,12.0,0.,12.0,0.,12.0
1979-08-02 09:16:52.330 ,3,1,0.,12.0,0.,12.0,0.,12.0,0.,12.0
1979-08-02 09:17:04.330 ,3,1,0.,12.0,0.,12.0,0.,12.0,0.,12.0
1979-08-02 09:17:16.320 ,0,1,0.,12.0,0.,12.0,0.,12.0,0.,12.0
1979-08-02 09:17:28.320 ,0,1,0.,12.0,0.,12.0,0.,12.0,0.,12.0
1979-08-02 09:17:40.320 ,0,0,0.,12.0,0.,12.0,0.,12.0,0.,12.0
1979-08-02 09:17:52.320 ,0,0,0.,12.0,0.,12.0,0.,12.0,0.,12.0
1979-08-02 09:18:04.320 ,0,0,0.,12.0,0.,12.0,0.,12.0,0.,12.0
1979-08-02 09:18:16.320 ,0,0,0.,12.0,0.,12.0,0.,12.0,0.,12.0
1979-08-02 09:18:28.320 ,5,0,0.,12.0,0.,12.0,0.,12.0,0.,12.0
1979-08-02 09:18:40.320 ,5,0,0.,12.0,0.,12.0,0.,12.0,0.,12.0
1979-08-02 09:18:52.320 ,5,0,0.,12.0,0.,12.0,0.,12.0,0.,12.0
1979-08-02 09:19:04.320 ,5,0,0.,12.0,0.,12.0,0.,12.0,0.,12.0
1979-08-02 09:19:16.320 ,4,0,0.,12.0,0.,12.0,0.,12.0,0.,12.0
1979-08-02 09:19:28.320 ,4,0,0.,12.0,0.,12.0,0.,12.0,0.,12.0
1979-08-02 09:19:40.320 ,4,0,0.,12.0,0.,12.0,0.,12.0,0.,12.0
1979-08-02 09:19:52.320 ,4,0,0.,12.0,0.,12.0,0.,12.0,0.,12.0
1979-08-02 09:20:04.320 ,3,0,0.,12.0,0.,12.0,0.,12.0,0.,12.0
1979-08-02 09:20:16.320 ,3,0,0.,12.0,0.,12.0,0.,12.0,0.,12.0
1979-08-02 09:20:28.320 ,3,0,0.,12.0,0.,12.0,0.,12.0,0.,12.0
1979-08-02 09:20:40.320 ,3,0,0.,12.0,0.,12.0,0.,12.0,0.,12.0
1979-08-02 09:20:52.320 ,2,0,0.,12.0,0.,12.0,1.,12.0,0.,12.0
1979-08-02 09:21:04.320 ,2,0,0.,12.0,0.,12.0,0.,12.0,0.,12.0
1979-08-02 09:21:16.320 ,2,0,0.,12.0,0.,12.0,0.,12.0,0.,12.0
1979-08-02 09:21:28.320 ,2,0,0.,12.0,0.,12.0,0.,12.0,0.,12.0
1979-08-02 09:21:40.320 ,1,0,0.,12.0,0.,12.0,0.,12.0,0.,12.0
1979-08-02 09:21:52.320 ,1,0,0.,12.0,0.,12.0,0.,12.0,0.,12.0
1979-08-02 09:22:04.320 ,1,0,0.,12.0,0.,12.0,0.,12.0,0.,12.0
1979-08-02 09:22:16.320 ,1,0,0.,12.0,0.,12.0,0.,12.0,0.,12.0
1979-08-02 09:22:28.320 ,0,0,0.,12.0,0.,12.0,0.,12.0,0.,12.0
1979-08-02 09:22:40.320 ,0,0,0.,12.0,0.,12.0,0.,12.0,0.,12.0
1979-08-02 09:22:52.320 ,0,0,0.,12.0,0.,12.0,0.,12.0,0.,12.0
1979-08-02 09:23:04.320 ,0,0,0.,12.0,0.,12.0,0.,12.0,0.,12.0
1979-08-02 09:23:16.320 ,0,0,0.,12.0,0.,12.0,0.,12.0,0.,12.0
1979-08-02 09:23:28.320 ,0,0,0.,12.0,0.,12.0,0.,12.0,0.,12.0
1979-08-02 09:23:40.320 ,0,0,0.,12.0,0.,12.0,0.,12.0,0.,12.0
1979-08-02 09:23:52.320 ,0,0,0.,12.0,0.,12.0,0.,12.0,0.,12.0
1979-08-02 09:24:04.320 ,1,0,0.,12.0,0.,12.0,0.,12.0,0.,12.0
1979-08-02 09:24:16.320 ,1,0,0.,12.0,0.,12.0,0.,12.0,0.,12.0
1979-08-02 09:24:28.320 ,1,0,0.,12.0,0.,12.0,0.,12.0,0.,12.0
1979-08-02 09:24:40.320 ,1,0,0.,12.0,0.,12.0,0.,12.0,0.,12.0
1979-08-02 09:24:52.320 ,2,0,0.,12.0,0.,12.0,0.,12.0,0.,12.0
1979-08-02 09:25:04.320 ,2,0,0.,12.0,0.,12.0,0.,12.0,0.,12.0
1979-08-02 09:25:16.320 ,2,0,0.,12.0,0.,12.0,0.,12.0,0.,12.0
1979-08-02 09:25:28.320 ,2,0,0.,12.0,0.,12.0,0.,12.0,0.,12.0
1979-08-02 09:25:40.320 ,3,0,0.,12.0,0.,12.0,0.,12.0,0.,12.0
1979-08-02 09:25:52.320 ,3,0,0.,12.0,0.,12.0,0.,12.0,0.,12.0
1979-08-02 09:26:04.320 ,3,0,0.,12.0,0.,12.0,0.,12.0,0.,12.0
1979-08-02 09:26:16.320 ,3,0,0.,12.0,0.,12.0,0.,12.0,0.,12.0
1979-08-02 09:26:28.320 ,4,0,0.,12.0,0.,12.0,0.,12.0,0.,12.0
1979-08-02 09:26:40.320 ,4,0,0.,12.0,0.,12.0,0.,12.0,0.,12.0
1979-08-02 09:26:52.320 ,4,0,0.,12.0,0.,12.0,0.,12.0,0.,12.0
1979-08-02 09:27:04.320 ,4,0,0.,12.0,0.,12.0,0.,12.0,0.,12.0
1979-08-02 09:27:16.320 ,5,0,0.,12.0,0.,12.0,0.,12.0,0.,12.0
1979-08-02 09:27:28.320 ,5,0,0.,12.0,0.,12.0,0.,12.0,0.,12.0
1979-08-02 09:27:40.320 ,5,0,0.,12.0,0.,12.0,0.,12.0,0.,12.0
1979-08-02 09:27:52.320 ,5,0,0.,12.0,0.,12.0,0.,12.0,0.,12.0
1979-08-02 09:28:04.320 ,6,0,0.,12.0,0.,12.0,0.,12.0,0.,12.0
1979-08-02 09:28:16.320 ,6,0,0.,12.0,0.,12.0,0.,12.0,0.,12.0
1979-08-02 09:28:28.320 ,6,0,0.,12.0,0.,12.0,0.,12.0,0.,12.0
1979-08-02 09:28:40.320 ,6,0,0.,12.0,0.,12.0,0.,12.0,0.,12.0
1979-08-02 09:28:52.320 ,7,0,0.,12.0,0.,12.0,0.,12.0,0.,12.0
1979-08-02 09:29:04.320 ,7,0,0.,12.0,0.,12.0,0.,12.0,0.,12.0
1979-08-02 09:29:16.320 ,7,0,0.,12.0,0.,12.0,0.,12.0,0.,12.0
1979-08-02 09:29:28.320 ,7,0,0.,12.0,0.,12.0,0.,12.0,0.,12.0
1979-08-02 09:29:40.320 ,7,0,0.,12.0,0.,12.0,0.,12.0,0.,12.0
1979-08-02 09:29:52.320 ,7,0,0.,12.0,0.,12.0,0.,12.0,0.,12.0
1979-08-02 09:30:04.320 ,7,0,0.,12.0,0.,12.0,0.,12.0,0.,12.0
1979-08-02 09:30:16.320 ,7,0,0.,12.0,0.,12.0,0.,12.0,0.,12.0
1979-08-02 09:30:28.320 ,6,0,0.,12.0,0.,12.0,0.,12.0,0.,12.0
1979-08-02 09:30:40.320 ,6,0,0.,12.0,0.,12.0,0.,12.0,0.,12.0
1979-08-02 09:30:52.320 ,6,0,0.,12.0,0.,12.0,0.,12.0,0.,12.0
1979-08-02 09:31:04.320 ,6,0,0.,12.0,0.,12.0,0.,12.0,0.,12.0
1979-08-02 09:31:16.320 ,0,0,0.,12.0,0.,12.0,0.,12.0,0.,12.0
1979-08-02 09:31:28.320 ,0,0,0.,12.0,0.,12.0,0.,12.0,0.,12.0
1979-08-02 09:31:40.320 ,0,0,0.,12.0,0.,12.0,0.,12.0,0.,12.0
1979-08-02 09:31:52.320 ,0,0,0.,12.0,0.,12.0,0.,12.0,0.,12.0
1979-08-02 09:32:04.320 ,4,0,0.,12.0,0.,12.0,0.,12.0,0.,12.0
1979-08-02 09:32:16.320 ,4,0,0.,12.0,0.,12.0,0.,12.0,0.,12.0
1979-08-02 09:32:28.320 ,4,0,0.,12.0,0.,12.0,0.,12.0,0.,12.0
1979-08-02 09:32:40.320 ,4,0,0.,12.0,0.,12.0,0.,12.0,0.,12.0
1979-08-02 09:32:52.320 ,3,0,0.,12.0,0.,12.0,0.,12.0,0.,12.0
1979-08-02 09:33:04.320 ,3,0,0.,12.0,0.,12.0,0.,12.0,0.,12.0
1979-08-02 09:33:16.320 ,3,0,0.,12.0,0.,12.0,0.,12.0,0.,12.0
1979-08-02 09:33:28.320 ,3,0,0.,12.0,0.,12.0,0.,12.0,0.,12.0
1979-08-02 09:33:40.320 ,2,0,0.,12.0,0.,12.0,0.,12.0,0.,12.0
1979-08-02 09:33:52.320 ,2,0,0.,12.0,0.,12.0,0.,12.0,0.,12.0
1979-08-02 09:34:04.320 ,2,0,0.,12.0,0.,12.0,0.,12.0,0.,12.0
1979-08-02 09:34:16.320 ,2,0,0.,12.0,0.,12.0,0.,12.0,0.,12.0
1979-08-02 09:34:28.320 ,1,0,0.,12.0,0.,12.0,0.,12.0,0.,12.0
1979-08-02 09:34:40.320 ,1,0,0.,12.0,0.,12.0,0.,12.0,0.,12.0
1979-08-02 09:34:52.320 ,1,0,0.,12.0,0.,12.0,0.,12.0,0.,12.0
1979-08-02 09:35:04.320 ,1,0,0.,12.0,0.,12.0,0.,12.0,0.,12.0
1979-08-02 09:35:16.320 ,0,0,0.,12.0,0.,12.0,0.,12.0,0.,12.0
1979-08-02 09:35:28.320 ,0,0,0.,12.0,0.,12.0,0.,12.0,0.,12.0
1979-08-02 09:35:40.320 ,0,0,0.,12.0,0.,12.0,0.,12.0,0.,12.0
1979-08-02 09:35:52.320 ,0,0,0.,12.0,0.,12.0,0.,12.0,0.,12.0
1979-08-02 09:36:04.320 ,0,0,0.,12.0,0.,12.0,0.,12.0,0.,12.0
1979-08-02 09:36:16.320 ,0,0,0.,12.0,0.,12.0,0.,12.0,0.,12.0
1979-08-02 09:36:28.320 ,0,0,0.,12.0,0.,12.0,0.,12.0,0.,12.0
1979-08-02 09:36:40.320 ,0,0,0.,12.0,0.,12.0,0.,12.0,0.,12.0
1979-08-02 09:36:52.320 ,1,0,0.,12.0,0.,12.0,0.,12.0,0.,12.0
1979-08-02 09:37:04.320 ,1,0,0.,12.0,0.,12.0,0.,12.0,0.,12.0
1979-08-02 09:37:16.320 ,1,0,0.,12.0,0.,12.0,0.,12.0,0.,12.0
1979-08-02 09:37:28.320 ,1,0,0.,12.0,0.,12.0,0.,12.0,0.,12.0
1979-08-02 09:37:40.320 ,2,0,0.,12.0,0.,12.0,0.,12.0,0.,12.0
1979-08-02 09:37:52.320 ,2,0,0.,12.0,0.,12.0,0.,12.0,0.,12.0
1979-08-02 09:38:04.320 ,2,0,0.,12.0,0.,12.0,0.,12.0,0.,12.0
1979-08-02 09:38:16.320 ,2,0,0.,12.0,0.,12.0,0.,12.0,0.,12.0
1979-08-02 09:38:28.320 ,3,0,0.,12.0,0.,12.0,0.,12.0,0.,12.0
1979-08-02 09:38:40.320 ,3,0,0.,12.0,0.,12.0,0.,12.0,0.,12.0
1979-08-02 09:38:52.320 ,3,0,0.,12.0,0.,12.0,0.,12.0,0.,12.0
1979-08-02 09:39:04.320 ,3,0,0.,12.0,0.,12.0,0.,12.0,0.,12.0
1979-08-02 09:39:16.320 ,4,0,0.,12.0,0.,12.0,0.,12.0,0.,12.0
1979-08-02 09:39:28.320 ,4,0,0.,12.0,0.,12.0,0.,12.0,0.,12.0
1979-08-02 09:39:40.320 ,4,0,0.,12.0,0.,12.0,0.,12.0,0.,12.0
1979-08-02 09:39:52.320 ,4,0,0.,12.0,0.,12.0,0.,12.0,0.,12.0
1979-08-02 09:40:04.320 ,5,0,0.,12.0,0.,12.0,0.,12.0,0.,12.0
1979-08-02 09:40:16.320 ,5,0,0.,12.0,0.,12.0,0.,12.0,0.,12.0
1979-08-02 09:40:28.320 ,5,0,0.,12.0,0.,12.0,0.,12.0,0.,12.0
1979-08-02 09:40:40.320 ,5,0,0.,12.0,0.,12.0,0.,12.0,0.,12.0
1979-08-02 09:40:52.320 ,6,0,0.,12.0,0.,12.0,0.,12.0,0.,12.0
1979-08-02 09:41:04.320 ,6,0,0.,12.0,0.,12.0,0.,12.0,0.,12.0
1979-08-02 09:41:16.320 ,6,0,0.,12.0,0.,12.0,0.,12.0,0.,12.0
1979-08-02 09:41:28.320 ,6,0,0.,12.0,0.,12.0,0.,12.0,0.,12.0
1979-08-02 09:41:40.320 ,7,0,0.,12.0,0.,12.0,0.,12.0,0.,12.0
1979-08-02 09:41:52.320 ,7,0,0.,12.0,0.,12.0,0.,12.0,0.,12.0
1979-08-02 09:42:04.320 ,7,0,0.,12.0,0.,12.0,0.,12.0,0.,12.0
1979-08-02 09:42:16.320 ,7,0,0.,12.0,0.,12.0,0.,12.0,0.,12.0
1979-08-02 09:42:28.320 ,7,0,0.,12.0,0.,12.0,0.,12.0,0.,12.0
1979-08-02 09:42:40.320 ,7,0,0.,12.0,0.,12.0,0.,12.0,0.,12.0
1979-08-02 09:42:52.320 ,7,0,0.,12.0,0.,12.0,0.,12.0,0.,12.0
1979-08-02 09:43:04.320 ,7,0,0.,12.0,0.,12.0,0.,12.0,0.,12.0
1979-08-02 09:43:16.320 ,6,0,0.,12.0,0.,12.0,0.,12.0,0.,12.0
1979-08-02 09:43:28.320 ,6,0,0.,12.0,0.,12.0,0.,12.0,0.,12.0
1979-08-02 09:43:40.320 ,6,0,0.,12.0,0.,12.0,0.,12.0,0.,12.0
1979-08-02 09:43:52.320 ,6,0,0.,12.0,0.,12.0,0.,12.0,0.,12.0
1979-08-02 09:44:04.320 ,5,0,0.,12.0,0.,12.0,0.,12.0,0.,12.0
1979-08-02 09:44:16.320 ,5,0,0.,12.0,0.,12.0,0.,12.0,0.,12.0
1979-08-02 09:44:28.320 ,5,0,0.,12.0,0.,12.0,0.,12.0,0.,12.0
1979-08-02 09:44:40.320 ,5,0,0.,12.0,0.,12.0,0.,12.0,0.,12.0
1979-08-02 09:44:52.320 ,4,0,0.,12.0,0.,12.0,0.,12.0,0.,12.0
1979-08-02 09:45:04.320 ,4,0,0.,12.0,0.,12.0,0.,12.0,0.,12.0
1979-08-02 09:45:16.320 ,4,0,0.,12.0,0.,12.0,0.,12.0,0.,12.0
1979-08-02 09:45:28.320 ,4,0,0.,12.0,0.,12.0,0.,12.0,0.,12.0
1979-08-02 09:45:40.320 ,3,0,0.,12.0,0.,12.0,0.,12.0,0.,12.0
1979-08-02 09:45:52.320 ,3,0,0.,12.0,0.,12.0,0.,12.0,0.,12.0
1979-08-02 09:46:04.320 ,3,0,0.,12.0,0.,12.0,0.,12.0,0.,12.0
1979-08-02 09:46:16.320 ,3,0,0.,12.0,0.,12.0,0.,12.0,0.,12.0
1979-08-02 09:46:28.320 ,2,0,0.,12.0,0.,12.0,0.,12.0,0.,12.0
1979-08-02 09:46:40.320 ,2,0,0.,12.0,0.,12.0,0.,12.0,0.,12.0
1979-08-02 09:46:52.320 ,2,0,0.,12.0,0.,12.0,0.,12.0,0.,12.0
1979-08-02 09:47:04.320 ,2,0,0.,12.0,0.,12.0,0.,12.0,0.,12.0
1979-08-02 09:47:16.320 ,1,0,0.,12.0,0.,12.0,0.,12.0,0.,12.0
1979-08-02 09:47:28.320 ,1,0,0.,12.0,0.,12.0,0.,12.0,0.,12.0
1979-08-02 09:47:40.320 ,1,0,0.,12.0,0.,12.0,0.,12.0,0.,12.0
1979-08-02 09:47:52.320 ,1,0,0.,12.0,0.,12.0,0.,12.0,0.,12.0
1979-08-02 09:48:04.320 ,0,0,0.,12.0,0.,12.0,0.,12.0,0.,12.0
1979-08-02 09:48:16.320 ,0,0,0.,12.0,0.,12.0,0.,12.0,0.,12.0
1979-08-02 09:48:28.320 ,0,0,0.,12.0,0.,12.0,0.,12.0,0.,12.0
1979-08-02 09:48:40.320 ,0,0,0.,12.0,0.,12.0,0.,12.0,0.,12.0
1979-08-02 09:48:52.320 ,0,0,0.,12.0,0.,12.0,0.,12.0,0.,12.0
1979-08-02 09:49:04.320 ,0,0,0.,12.0,0.,12.0,0.,12.0,0.,12.0
1979-08-02 09:49:16.320 ,0,0,0.,12.0,0.,12.0,0.,12.0,0.,12.0
1979-08-02 09:49:28.320 ,0,0,0.,12.0,0.,12.0,0.,12.0,0.,12.0
1979-08-02 09:49:40.320 ,1,0,0.,12.0,0.,12.0,0.,12.0,0.,12.0
1979-08-02 09:49:52.320 ,1,0,0.,12.0,0.,12.0,0.,12.0,0.,12.0
1979-08-02 09:50:04.320 ,1,0,0.,12.0,0.,12.0,0.,12.0,0.,12.0
1979-08-02 09:50:16.320 ,1,0,0.,12.0,0.,12.0,0.,12.0,0.,12.0
1979-08-02 09:50:28.320 ,2,0,0.,12.0,0.,12.0,0.,12.0,0.,12.0
1979-08-02 09:50:40.320 ,2,0,0.,12.0,0.,12.0,0.,12.0,0.,12.0
1979-08-02 09:50:52.320 ,2,0,0.,12.0,0.,12.0,0.,12.0,0.,12.0
1979-08-02 09:51:04.320 ,2,0,0.,12.0,0.,12.0,0.,12.0,0.,12.0
1979-08-02 09:51:16.320 ,3,0,0.,12.0,0.,12.0,0.,12.0,0.,12.0
1979-08-02 09:51:28.320 ,3,0,0.,12.0,0.,12.0,0.,12.0,0.,12.0
1979-08-02 09:51:40.320 ,3,0,0.,12.0,0.,12.0,0.,12.0,0.,12.0
1979-08-02 09:51:52.320 ,3,0,0.,12.0,0.,12.0,0.,12.0,0.,12.0
1979-08-02 09:52:04.320 ,4,0,0.,12.0,0.,12.0,0.,12.0,0.,12.0
1979-08-02 09:52:16.320 ,4,0,0.,12.0,0.,12.0,0.,12.0,0.,12.0
1979-08-02 09:52:28.320 ,4,0,0.,12.0,0.,12.0,0.,12.0,0.,12.0
1979-08-02 09:52:40.320 ,4,0,0.,12.0,0.,12.0,0.,12.0,0.,12.0
1979-08-02 09:52:52.320 ,5,0,0.,12.0,0.,12.0,0.,12.0,0.,12.0
1979-08-02 09:53:04.320 ,5,0,0.,12.0,0.,12.0,0.,12.0,0.,12.0
1979-08-02 09:53:16.320 ,5,0,0.,12.0,0.,12.0,0.,12.0,0.,12.0
1979-08-02 09:53:28.320 ,5,0,0.,12.0,0.,12.0,0.,12.0,0.,12.0
1979-08-02 09:53:40.320 ,6,0,0.,12.0,0.,12.0,0.,12.0,0.,12.0
1979-08-02 09:53:52.320 ,6,0,0.,12.0,0.,12.0,0.,12.0,0.,12.0
1979-08-02 09:54:04.320 ,6,0,0.,12.0,0.,12.0,0.,12.0,0.,12.0
1979-08-02 09:54:16.320 ,6,0,0.,12.0,0.,12.0,0.,12.0,0.,12.0
1979-08-02 09:54:28.320 ,7,0,0.,12.0,0.,12.0,0.,12.0,0.,12.0
1979-08-02 09:54:40.320 ,7,0,0.,12.0,0.,12.0,0.,12.0,0.,12.0
1979-08-02 09:54:52.320 ,7,0,0.,12.0,0.,12.0,0.,12.0,0.,12.0
1979-08-02 09:55:04.320 ,7,0,0.,12.0,0.,12.0,0.,12.0,0.,12.0
1979-08-02 09:55:16.320 ,3,1,0.,12.0,0.,12.0,0.,12.0,0.,12.0
1979-08-02 09:55:28.320 ,3,1,0.,12.0,0.,12.0,0.,12.0,0.,12.0
1979-08-02 09:55:40.320 ,0,1,0.,12.0,0.,12.0,0.,12.0,0.,12.0
1979-08-02 09:55:52.320 ,0,1,0.,12.0,0.,12.0,0.,12.0,0.,12.0
1979-08-02 09:56:04.320 ,4,1,0.,12.0,0.,12.0,0.,12.0,0.,12.0
1979-08-02 09:56:16.320 ,4,1,0.,12.0,0.,12.0,0.,12.0,0.,12.0
1979-08-02 09:56:28.320 ,7,1,0.,12.0,0.,12.0,0.,12.0,0.,12.0
1979-08-02 09:56:40.320 ,7,1,0.,12.0,0.,12.0,0.,12.0,0.,12.0
1979-08-02 09:56:52.320 ,3,1,0.,12.0,0.,12.0,0.,12.0,0.,12.0
1979-08-02 09:57:04.320 ,3,1,0.,12.0,0.,12.0,0.,12.0,0.,12.0
1979-08-02 09:57:16.320 ,0,1,0.,12.0,0.,12.0,0.,12.0,0.,12.0
1979-08-02 09:57:28.320 ,0,1,0.,12.0,0.,12.0,0.,12.0,0.,12.0
1979-08-02 09:57:40.320 ,4,1,0.,12.0,0.,12.0,0.,12.0,0.,12.0
1979-08-02 09:57:52.320 ,4,1,0.,12.0,0.,12.0,0.,12.0,0.,12.0
1979-08-02 09:58:04.320 ,7,1,0.,12.0,0.,12.0,0.,12.0,0.,12.0
1979-08-02 09:58:16.320 ,7,1,0.,12.0,0.,12.0,0.,12.0,0.,12.0
1979-08-02 09:58:28.320 ,3,1,0.,12.0,0.,12.0,0.,12.0,0.,12.0
1979-08-02 09:58:40.320 ,3,1,0.,12.0,0.,12.0,0.,12.0,0.,12.0
1979-08-02 09:58:52.320 ,0,1,0.,12.0,0.,12.0,0.,12.0,0.,12.0
1979-08-02 09:59:04.320 ,0,1,0.,12.0,0.,12.0,0.,12.0,0.,12.0
1979-08-02 09:59:16.320 ,4,1,0.,12.0,0.,12.0,0.,12.0,0.,12.0
1979-08-02 09:59:28.320 ,4,1,0.,12.0,0.,12.0,0.,12.0,0.,12.0
1979-08-02 09:59:40.320 ,7,1,0.,12.0,0.,12.0,0.,12.0,0.,12.0
1979-08-02 09:59:52.320 ,7,1,0.,12.0,0.,12.0,0.,12.0,0.,12.0
1979-08-02 10:00:04.320 ,3,1,0.,12.0,0.,12.0,0.,12.0,0.,12.0
1979-08-02 10:00:16.320 ,3,1,0.,12.0,0.,12.0,0.,12.0,0.,12.0
1979-08-02 10:00:28.320 ,0,1,0.,12.0,0.,12.0,0.,12.0,0.,12.0
1979-08-02 10:00:40.320 ,0,1,0.,12.0,0.,12.0,0.,12.0,0.,12.0
1979-08-02 10:00:52.320 ,4,1,0.,12.0,0.,12.0,0.,12.0,0.,12.0
1979-08-02 10:01:04.320 ,4,1,0.,12.0,0.,12.0,0.,12.0,0.,12.0
1979-08-02 10:01:16.320 ,7,1,0.,12.0,0.,12.0,0.,12.0,0.,12.0
1979-08-02 10:01:28.320 ,7,1,0.,12.0,0.,12.0,0.,12.0,0.,12.0
1979-08-02 10:01:40.320 ,3,1,0.,12.0,0.,12.0,0.,12.0,0.,12.0
1979-08-02 10:01:52.320 ,3,1,0.,12.0,0.,12.0,0.,12.0,0.,12.0
1979-08-02 10:02:04.320 ,0,1,0.,12.0,0.,12.0,0.,12.0,0.,12.0
1979-08-02 10:02:16.320 ,0,1,0.,12.0,0.,12.0,0.,12.0,0.,12.0
1979-08-02 10:02:28.320 ,4,1,0.,12.0,0.,12.0,0.,12.0,0.,12.0
1979-08-02 10:02:40.320 ,4,1,0.,12.0,0.,12.0,0.,12.0,0.,12.0
1979-08-02 10:02:52.320 ,7,1,0.,12.0,0.,12.0,0.,12.0,0.,12.0
1979-08-02 10:03:04.320 ,7,1,0.,12.0,0.,12.0,0.,12.0,0.,12.0
1979-08-02 10:03:16.320 ,3,1,0.,12.0,0.,12.0,0.,12.0,0.,12.0
1979-08-02 10:03:28.320 ,3,1,0.,12.0,0.,12.0,0.,12.0,0.,12.0
1979-08-02 10:03:40.320 ,0,1,0.,12.0,0.,12.0,0.,12.0,0.,12.0
1979-08-02 10:03:52.320 ,0,1,0.,12.0,0.,12.0,0.,12.0,0.,12.0
1979-08-02 10:04:04.320 ,4,1,0.,12.0,0.,12.0,0.,12.0,0.,12.0
1979-08-02 10:04:16.320 ,4,1,0.,12.0,0.,12.0,0.,12.0,0.,12.0
1979-08-02 10:04:28.320 ,7,1,0.,12.0,0.,12.0,0.,12.0,0.,12.0
1979-08-02 10:04:40.320 ,7,1,0.,12.0,0.,12.0,0.,12.0,0.,12.0
1979-08-02 10:04:52.320 ,3,1,0.,12.0,0.,12.0,0.,12.0,0.,12.0
1979-08-02 10:05:04.320 ,3,1,0.,12.0,0.,12.0,0.,12.0,0.,12.0
1979-08-02 10:05:16.320 ,0,1,0.,12.0,0.,12.0,0.,12.0,0.,12.0
1979-08-02 10:05:28.320 ,0,1,0.,12.0,0.,12.0,0.,12.0,0.,12.0
1979-08-02 10:05:40.320 ,0,0,0.,12.0,0.,12.0,0.,12.0,0.,12.0
1979-08-02 10:05:52.320 ,0,0,0.,12.0,0.,12.0,0.,12.0,0.,12.0
1979-08-02 10:06:04.320 ,0,0,0.,12.0,0.,12.0,0.,12.0,0.,12.0
1979-08-02 10:06:16.320 ,0,0,0.,12.0,0.,12.0,0.,12.0,0.,12.0
1979-08-02 10:06:28.320 ,5,0,0.,12.0,0.,12.0,0.,12.0,0.,12.0
1979-08-02 10:06:40.320 ,5,0,0.,12.0,0.,12.0,0.,12.0,0.,12.0
1979-08-02 10:06:52.320 ,5,0,0.,12.0,0.,12.0,0.,12.0,0.,12.0
1979-08-02 10:07:04.320 ,5,0,0.,12.0,0.,12.0,0.,12.0,0.,12.0
1979-08-02 10:07:16.320 ,4,0,0.,12.0,0.,12.0,0.,12.0,0.,12.0
1979-08-02 10:07:28.320 ,4,0,0.,12.0,0.,12.0,0.,12.0,0.,12.0
1979-08-02 10:07:40.320 ,4,0,0.,12.0,0.,12.0,0.,12.0,0.,12.0
1979-08-02 10:07:52.320 ,4,0,0.,12.0,0.,12.0,0.,12.0,0.,12.0
1979-08-02 10:08:04.320 ,3,0,0.,12.0,0.,12.0,0.,12.0,0.,12.0
1979-08-02 10:08:16.320 ,3,0,0.,12.0,0.,12.0,0.,12.0,0.,12.0
1979-08-02 10:08:28.320 ,3,0,0.,12.0,0.,12.0,0.,12.0,0.,12.0
1979-08-02 10:08:40.320 ,3,0,0.,12.0,0.,12.0,0.,12.0,0.,12.0
1979-08-02 10:08:52.320 ,2,0,0.,12.0,0.,12.0,0.,12.0,0.,12.0
1979-08-02 10:09:04.320 ,2,0,0.,12.0,0.,12.0,0.,12.0,0.,12.0
1979-08-02 10:09:16.320 ,2,0,0.,12.0,0.,12.0,0.,12.0,0.,12.0
1979-08-02 10:09:28.320 ,2,0,0.,12.0,0.,12.0,0.,12.0,0.,12.0
1979-08-02 10:09:40.320 ,1,0,0.,12.0,0.,12.0,0.,12.0,0.,12.0
1979-08-02 10:09:52.320 ,1,0,0.,12.0,0.,12.0,0.,12.0,0.,12.0
1979-08-02 10:10:04.320 ,1,0,0.,12.0,0.,12.0,0.,12.0,0.,12.0
1979-08-02 10:10:16.320 ,1,0,0.,12.0,0.,12.0,0.,12.0,0.,12.0
1979-08-02 10:10:28.320 ,0,0,0.,12.0,0.,12.0,0.,12.0,0.,12.0
1979-08-02 10:10:40.320 ,0,0,0.,12.0,0.,12.0,0.,12.0,0.,12.0
1979-08-02 10:10:52.320 ,0,0,0.,12.0,0.,12.0,0.,12.0,0.,12.0
1979-08-02 10:11:04.320 ,0,0,0.,12.0,0.,12.0,0.,12.0,0.,12.0
1979-08-02 10:11:16.320 ,0,0,0.,12.0,0.,12.0,0.,12.0,0.,12.0
1979-08-02 10:11:28.320 ,0,0,0.,12.0,0.,12.0,0.,12.0,0.,12.0
1979-08-02 10:11:40.320 ,0,0,0.,12.0,0.,12.0,0.,12.0,0.,12.0
1979-08-02 10:11:52.320 ,0,0,0.,12.0,0.,12.0,0.,12.0,0.,12.0
1979-08-02 10:12:04.320 ,1,0,0.,12.0,0.,12.0,0.,12.0,0.,12.0
1979-08-02 10:12:16.320 ,1,0,0.,12.0,0.,12.0,0.,12.0,0.,12.0
1979-08-02 10:12:28.320 ,1,0,0.,12.0,0.,12.0,0.,12.0,0.,12.0
1979-08-02 10:12:40.320 ,1,0,0.,12.0,0.,12.0,0.,12.0,0.,12.0
1979-08-02 10:12:52.320 ,2,0,0.,12.0,0.,12.0,0.,12.0,0.,12.0
1979-08-02 10:13:04.320 ,2,0,0.,12.0,0.,12.0,0.,12.0,0.,12.0
1979-08-02 10:13:16.320 ,2,0,0.,12.0,0.,12.0,0.,12.0,0.,12.0
1979-08-02 10:13:28.320 ,2,0,0.,12.0,0.,12.0,0.,12.0,0.,12.0
1979-08-02 10:13:40.320 ,3,0,0.,12.0,0.,12.0,0.,12.0,0.,12.0
1979-08-02 10:13:52.320 ,3,0,0.,12.0,0.,12.0,0.,12.0,0.,12.0
1979-08-02 10:14:04.320 ,3,0,0.,12.0,0.,12.0,0.,12.0,0.,12.0
1979-08-02 10:14:16.320 ,3,0,0.,12.0,0.,12.0,0.,12.0,0.,12.0
1979-08-02 10:14:28.320 ,4,0,0.,12.0,0.,12.0,0.,12.0,0.,12.0
1979-08-02 10:14:40.320 ,4,0,0.,12.0,0.,12.0,0.,12.0,0.,12.0
1979-08-02 10:14:52.320 ,4,0,0.,12.0,0.,12.0,0.,12.0,0.,12.0
1979-08-02 10:15:04.320 ,4,0,0.,12.0,0.,12.0,0.,12.0,0.,12.0
1979-08-02 10:15:16.320 ,5,0,0.,12.0,0.,12.0,0.,12.0,0.,12.0
1979-08-02 10:15:28.320 ,5,0,0.,12.0,0.,12.0,0.,12.0,0.,12.0
1979-08-02 10:15:40.320 ,5,0,0.,12.0,0.,12.0,0.,12.0,0.,12.0
1979-08-02 10:15:52.320 ,5,0,0.,12.0,0.,12.0,0.,12.0,0.,12.0
1979-08-02 10:16:04.320 ,6,0,0.,12.0,0.,12.0,0.,12.0,0.,12.0
1979-08-02 10:16:16.320 ,6,0,0.,12.0,0.,12.0,0.,12.0,0.,12.0
1979-08-02 10:16:28.320 ,6,0,0.,12.0,0.,12.0,0.,12.0,0.,12.0
1979-08-02 10:16:40.320 ,6,0,0.,12.0,0.,12.0,0.,12.0,0.,12.0
1979-08-02 10:16:52.320 ,7,0,0.,12.0,0.,12.0,0.,12.0,0.,12.0
1979-08-02 10:17:04.320 ,7,0,0.,12.0,0.,12.0,0.,12.0,0.,12.0
1979-08-02 10:17:16.320 ,7,0,0.,12.0,0.,12.0,0.,12.0,0.,12.0
1979-08-02 10:17:28.320 ,7,0,0.,12.0,0.,12.0,0.,12.0,0.,12.0